GW5167 Weather Reports


Display with metric or nautical units.
time (UTC)temp
F
wind
direction
speed
MPH
gust
MPH
rain 1hr
in
rain 24hr
in
rain mn
in
humidity
%
barometer
mb
20260504050305 47 208 0.0 0.0 0.00 0.00 0.00 69 1003.6
20260504045802 47 208 0.0 0.0 0.00 0.00 0.00 71 1003.8
20260504045304 46 208 0.0 0.0 0.00 0.00 0.00 73 1003.8
20260504044800 47 208 0.0 0.0 0.00 0.00 0.00 72 1003.8
20260504044257 48 208 0.0 0.0 0.00 0.00 0.00 71 1004.0
20260504043754 49 208 0.0 0.0 0.00 0.00 0.00 68 1003.9
20260504043251 50 208 0.0 0.0 0.00 0.00 0.00 64 1004.0
20260504042749 49 207 0.0 0.0 0.00 0.00 0.00 63 1004.0
20260504042245 47 220 0.0 0.0 0.00 0.00 0.00 70 1004.1
20260504041741 48 220 0.0 0.0 0.00 0.00 0.00 69 1003.9
20260504041238 49 220 0.0 0.0 0.00 0.00 0.00 67 1004.0
20260504040734 49 220 0.0 0.0 0.00 0.00 0.00 66 1004.1
20260504040232 49 220 0.0 0.0 0.00 0.00 0.00 62 1004.0
20260504035727 49 220 0.0 0.0 0.00 0.00 0.00 65 1004.1
20260504035225 49 220 0.0 0.0 0.00 0.00 0.00 63 1004.5
20260504034722 49 220 0.0 0.0 0.00 0.00 0.00 62 1004.4
20260504034219 49 220 0.0 0.0 0.00 0.00 0.00 62 1004.6
20260504033717 50 220 0.0 0.0 0.00 0.00 0.00 63 1004.7
20260504033214 50 220 0.0 0.0 0.00 0.00 0.00 62 1004.8
20260504032711 50 220 0.0 0.0 0.00 0.00 0.00 61 1004.7
20260504032208 50 220 0.0 0.0 0.00 0.00 0.00 60 1004.8
20260504031705 50 220 0.0 0.0 0.00 0.00 0.00 61 1004.9
20260504031202 51 220 0.0 0.0 0.00 0.00 0.00 61 1005.1
20260504030658 51 220 0.0 0.0 0.00 0.00 0.00 60 1004.9
20260504030155 51 220 0.0 0.0 0.00 0.00 0.00 58 1005.0
20260504025651 53 220 0.0 0.0 0.00 0.00 0.00 58 1005.0
20260504025148 53 220 0.0 0.0 0.00 0.00 0.00 55 1004.8
20260504024646 53 220 0.0 0.0 0.00 0.00 0.00 55 1005.0
20260504024142 53 221 0.0 0.0 0.00 0.00 0.00 53 1004.8
20260504023639 54 221 0.0 0.0 0.00 0.00 0.00 53 1005.0
20260504023135 55 223 0.0 0.0 0.00 0.00 0.00 51 1005.1
20260504022631 56 224 0.0 0.0 0.00 0.00 0.00 49 1004.9
20260504022127 57 224 0.0 0.0 0.00 0.00 0.00 47 1004.7
20260504021625 59 224 0.0 0.0 0.00 0.00 0.00 45 1004.8
20260504021121 61 224 0.0 0.0 0.00 0.00 0.00 40 1004.8
20260504020619 62 233 0.0 1.0 0.00 0.00 0.00 38 1004.8
20260504020115 62 235 1.0 1.0 0.00 0.00 0.00 36 1004.6
20260504015612 62 236 1.0 1.0 0.00 0.00 0.00 36 1004.7
20260504015108 62 236 0.0 0.0 0.00 0.00 0.00 35 1004.8
20260504014604 62 236 0.0 0.0 0.00 0.00 0.00 35 1004.6
20260504014101 62 236 0.0 0.0 0.00 0.00 0.00 36 1004.6
20260504013558 62 237 0.0 0.0 0.00 0.00 0.00 36 1004.6
20260504013055 62 239 0.0 1.0 0.00 0.00 0.00 36 1004.6
20260504012553 62 241 0.0 0.0 0.00 0.00 0.00 36 1004.8
20260504012051 63 240 0.0 1.0 0.00 0.00 0.00 36 1004.6
20260504011547 64 239 0.0 0.0 0.00 0.00 0.00 35 1004.5
20260504011043 65 243 0.0 1.0 0.00 0.00 0.00 34 1004.4
20260504010539 66 247 0.0 0.0 0.00 0.00 0.00 33 1004.4
20260504010035 67 261 0.0 0.0 0.00 0.00 0.00 32 1004.4
20260504005532 67 259 1.0 1.0 0.00 0.00 0.00 31 1004.3
20260504005030 68 284 1.0 2.0 0.00 0.00 0.00 31 1004.3
20260504004527 68 268 1.0 1.0 0.00 0.00 0.00 31 1004.5
20260504004024 69 287 1.0 2.0 0.00 0.00 0.00 30 1004.4
20260504003520 69 258 0.0 0.0 0.00 0.00 0.00 30 1004.3
20260504003017 70 263 1.0 1.0 0.00 0.00 0.00 29 1004.4
20260504002514 71 265 2.0 2.0 0.00 0.00 0.00 28 1004.3
20260504002012 72 255 1.0 1.0 0.00 0.00 0.00 27 1004.4
20260504001509 72 259 1.0 1.0 0.00 0.00 0.00 27 1004.4
20260504001005 73 238 2.0 2.0 0.00 0.00 0.00 26 1004.1
20260504000502 73 297 1.0 2.0 0.00 0.00 0.00 27 1004.1
20260503235959 73 254 2.0 3.0 0.00 0.00 0.00 26 1004.4
20260503235458 73 250 2.0 3.0 0.00 0.00 0.00 26 1004.4
20260503234954 74 312 2.0 2.0 0.00 0.00 0.00 26 1004.1
20260503234452 74 261 2.0 3.0 0.00 0.00 0.00 26 1004.1
20260503233950 74 229 1.0 2.0 0.00 0.00 0.00 26 1004.1
20260503233446 74 273 2.0 4.0 0.00 0.00 0.00 25 1004.3
20260503232942 74 264 3.0 3.0 0.00 0.00 0.00 26 1004.0
20260503232439 74 22 5.0 8.0 0.00 0.00 0.00 26 1003.9
20260503231937 75 264 2.0 2.0 0.00 0.00 0.00 26 1004.0
20260503231434 75 301 2.0 3.0 0.00 0.00 0.00 25 1004.1
20260503230931 75 274 2.0 2.0 0.00 0.00 0.00 26 1004.1
20260503230427 75 255 2.0 2.0 0.00 0.00 0.00 24 1004.3
20260503225925 75 292 3.0 4.0 0.00 0.00 0.00 26 1004.1
20260503225422 75 229 2.0 2.0 0.00 0.00 0.00 25 1004.0
20260503224917 76 342 9.0 10.0 0.00 0.00 0.00 25 1004.3
20260503224415 76 215 1.0 2.0 0.00 0.00 0.00 25 1004.3
20260503223912 76 280 3.0 4.0 0.00 0.00 0.00 25 1004.0
20260503223410 75 279 2.0 3.0 0.00 0.00 0.00 26 1004.3
20260503222910 75 262 1.0 2.0 0.00 0.00 0.00 24 1004.1
20260503222409 76 183 7.0 9.0 0.00 0.00 0.00 25 1004.0
20260503221907 76 278 1.0 2.0 0.00 0.00 0.00 24 1004.0
20260503221405 76 239 4.0 4.0 0.00 0.00 0.00 25 1003.9
20260503220901 76 245 2.0 3.0 0.00 0.00 0.00 24 1004.0
20260503220358 77 288 4.0 6.0 0.00 0.00 0.00 25 1004.0
20260503215855 77 307 7.0 9.0 0.00 0.00 0.00 23 1003.9
20260503215352 76 299 2.0 4.0 0.00 0.00 0.00 22 1003.9
20260503214849 75 280 2.0 3.0 0.00 0.00 0.00 25 1004.0
20260503214347 76 352 2.0 4.0 0.00 0.00 0.00 25 1003.9
20260503213844 75 258 6.0 10.0 0.00 0.00 0.00 25 1003.9
20260503213342 75 321 7.0 10.0 0.00 0.00 0.00 24 1003.8
20260503212838 75 320 6.0 8.0 0.00 0.00 0.00 23 1003.9
20260503212336 76 288 2.0 2.0 0.00 0.00 0.00 25 1004.0
20260503211833 76 291 4.0 6.0 0.00 0.00 0.00 26 1004.0
20260503211330 76 287 6.0 8.0 0.00 0.00 0.00 25 1004.0
20260503210825 76 332 4.0 7.0 0.00 0.00 0.00 25 1003.9
20260503210323 76 335 5.0 6.0 0.00 0.00 0.00 26 1004.0
20260503205817 75 281 2.0 2.0 0.00 0.00 0.00 26 1004.3
20260503205314 75 330 8.0 10.0 0.00 0.00 0.00 26 1004.0
20260503204811 75 319 7.0 13.0 0.00 0.00 0.00 25 1004.1
20260503204309 76 305 6.0 8.0 0.00 0.00 0.00 27 1004.3
20260503203806 76 261 4.0 6.0 0.00 0.00 0.00 26 1004.3
20260503203303 76 317 5.0 9.0 0.00 0.00 0.00 28 1004.1
20260503202759 75 328 6.0 9.0 0.00 0.00 0.00 25 1004.3
20260503202258 75 351 13.0 16.0 0.00 0.00 0.00 26 1004.5
20260503201755 75 332 8.0 9.0 0.00 0.00 0.00 26 1004.6
20260503201253 75 283 2.0 2.0 0.00 0.00 0.00 30 1004.4
20260503200750 75 334 4.0 6.0 0.00 0.00 0.00 27 1004.5
20260503200245 76 285 4.0 4.0 0.00 0.00 0.00 29 1004.5
20260503195743 76 276 4.0 6.0 0.00 0.00 0.00 29 1004.4
20260503195239 76 279 4.0 6.0 0.00 0.00 0.00 29 1004.5
20260503194737 76 313 4.0 4.0 0.00 0.00 0.00 29 1004.5
20260503194232 75 255 3.0 4.0 0.00 0.00 0.00 29 1004.4
20260503193729 75 288 9.0 10.0 0.00 0.00 0.00 27 1004.4
20260503193225 75 262 4.0 7.0 0.00 0.00 0.00 29 1004.7
20260503192721 75 330 4.0 6.0 0.00 0.00 0.00 32 1004.5
20260503192216 74 18 12.0 15.0 0.00 0.00 0.00 30 1004.5
20260503191713 74 4 9.0 11.0 0.00 0.00 0.00 30 1004.6
20260503191211 74 335 6.0 9.0 0.00 0.00 0.00 29 1004.7
20260503190707 73 148 4.0 7.0 0.00 0.00 0.00 33 1004.5
20260503190204 74 355 10.0 13.0 0.00 0.00 0.00 34 1004.7
20260503185701 74 304 2.0 2.0 0.00 0.00 0.00 31 1004.6
20260503185156 75 13 8.0 13.0 0.00 0.00 0.00 31 1004.5
20260503184651 75 299 9.0 13.0 0.00 0.00 0.00 31 1004.4
20260503184147 75 280 2.0 2.0 0.00 0.00 0.00 32 1004.6
20260503183644 75 296 8.0 10.0 0.00 0.00 0.00 30 1004.4
20260503183142 74 321 4.0 7.0 0.00 0.00 0.00 34 1004.4
20260503182640 74 3 6.0 11.0 0.00 0.00 0.00 34 1004.5
20260503182139 75 251 4.0 6.0 0.00 0.00 0.00 34 1004.5
20260503181635 75 258 4.0 6.0 0.00 0.00 0.00 31 1004.4
20260503181131 75 285 5.0 7.0 0.00 0.00 0.00 33 1004.3
20260503180628 75 283 3.0 7.0 0.00 0.00 0.00 33 1004.3
20260503180126 74 346 4.0 6.0 0.00 0.00 0.00 33 1004.8
20260503175623 75 300 2.0 4.0 0.00 0.00 0.00 35 1004.6
20260503175120 74 293 2.0 2.0 0.00 0.00 0.00 34 1004.7
20260503174616 73 232 2.0 2.0 0.00 0.00 0.00 33 1004.7
20260503174114 73 328 9.0 13.0 0.00 0.00 0.00 34 1004.8
20260503173608 73 243 4.0 4.0 0.00 0.00 0.00 34 1004.9
20260503173105 73 290 3.0 4.0 0.00 0.00 0.00 36 1004.8
20260503172602 73 297 4.0 6.0 0.00 0.00 0.00 34 1004.8
20260503172100 72 321 3.0 3.0 0.00 0.00 0.00 34 1004.8
20260503171556 72 269 4.0 6.0 0.00 0.00 0.00 34 1005.0
20260503171054 72 267 2.0 4.0 0.00 0.00 0.00 34 1004.9
20260503170549 72 228 2.0 2.0 0.00 0.00 0.00 34 1005.0
20260503150942 63 253 5.0 6.0 0.00 0.00 0.00 41 1005.4
20260503150439 62 244 6.0 7.0 0.00 0.00 0.00 41 1005.5
20260503131332 55 229 2.0 3.0 0.00 0.00 0.00 48 1006.6
20260503130829 55 246 3.0 4.0 0.00 0.00 0.00 49 1006.7
20260503130327 54 222 1.0 1.0 0.00 0.00 0.00 51 1006.8
20260503110715 52 218 0.0 0.0 0.00 0.00 0.00 50 1007.6
20260503110212 52 141 2.0 2.0 0.00 0.00 0.00 50 1007.4
20260503100138 53 167 3.0 3.0 0.00 0.00 0.00 46 1008.3
20260503081532 52 231 0.0 0.0 0.00 0.00 0.00 49 1010.8
20260503081030 52 263 0.0 0.0 0.00 0.00 0.00 49 1010.7
20260503080526 52 226 0.0 0.0 0.00 0.00 0.00 49 1010.5
20260503072459 53 337 0.0 1.0 0.00 0.00 0.00 49 1010.4
20260503071956 53 218 0.0 1.0 0.00 0.00 0.00 47 1010.4
20260503071453 54 223 0.0 1.0 0.00 0.00 0.00 46 1010.5
20260503070949 54 185 1.0 2.0 0.00 0.00 0.00 46 1010.4
20260503070446 54 173 1.0 2.0 0.00 0.00 0.00 44 1010.4
20260503054900 52 247 1.0 1.0 0.00 0.00 0.00 49 1010.9
20260503054356 51 221 0.0 1.0 0.00 0.00 0.00 49 1011.0
20260503053854 51 230 0.0 1.0 0.00 0.00 0.00 51 1010.9
20260503053352 51 237 0.0 0.0 0.00 0.00 0.00 51 1010.9
20260503052848 51 231 1.0 1.0 0.00 0.00 0.00 51 1010.9
20260503052345 51 255 1.0 2.0 0.00 0.00 0.00 50 1010.9
20260503051842 50 233 1.0 2.0 0.00 0.00 0.00 51 1010.9
20260503051338 50 226 0.0 1.0 0.00 0.00 0.00 50 1011.0
20260503050835 50 236 1.0 1.0 0.00 0.00 0.00 51 1011.0